GW4435 Weather Reports


time (UTC)temp
F
wind
direction
speed
knots
gust
knots
rain 1hr
in
rain 24hr
in
rain mn
in
humidity
%
barometer
mb
20260505071504 63 136 2.6 5.2 0.00 0.00 0.00 77 1006.8
20260505071004 63 143 2.6 5.2 0.00 0.00 0.00 77 1007.0
20260505070504 63 135 2.6 4.3 0.00 0.00 0.00 77 1007.0
20260505070004 63 139 2.6 5.2 0.00 0.00 0.00 77 1007.1
20260505065505 63 143 4.3 5.2 0.00 0.00 0.00 77 1007.2
20260505065004 63 145 3.5 5.2 0.00 0.00 0.00 77 1007.1
20260505064506 63 142 1.7 4.3 0.00 0.00 0.00 77 1007.2
20260505064005 63 139 1.7 5.2 0.00 0.00 0.00 77 1007.2
20260505063506 63 163 1.7 5.2 0.00 0.00 0.00 77 1007.2
20260505062004 63 157 2.6 6.1 0.00 0.00 0.00 76 1007.3
20260505061504 63 145 3.5 6.1 0.00 0.00 0.00 77 1007.2
20260505061004 63 151 2.6 7.0 0.00 0.00 0.00 77 1007.3
20260505060505 63 152 5.2 7.0 0.00 0.00 0.00 77 1007.2
20260505060005 63 149 5.2 7.0 0.00 0.00 0.00 76 1007.3
20260505055504 63 147 4.3 6.1 0.00 0.00 0.00 76 1007.6
20260505055005 63 145 2.6 6.1 0.00 0.00 0.00 76 1007.6
20260505054506 64 150 2.6 5.2 0.00 0.00 0.00 75 1007.9
20260505054004 64 146 1.7 5.2 0.00 0.00 0.00 75 1007.8
20260505053504 64 149 2.6 5.2 0.00 0.00 0.00 75 1007.8
20260505053005 64 144 4.3 6.1 0.00 0.00 0.00 75 1007.8
20260505051504 64 150 3.5 7.0 0.00 0.00 0.00 74 1007.9
20260505051005 64 152 4.3 6.1 0.00 0.00 0.00 74 1007.8
20260505050504 64 165 2.6 6.1 0.00 0.00 0.00 73 1007.9
20260505041504 65 155 2.6 4.3 0.00 0.00 0.00 71 1008.4
20260505040504 65 142 1.7 2.6 0.00 0.00 0.00 71 1008.5
20260505040006 66 148 1.7 4.3 0.00 0.00 0.00 70 1008.6
20260505035504 66 153 1.7 4.3 0.00 0.00 0.00 69 1008.6
20260505034504 65 198 1.7 7.0 0.00 0.00 0.00 71 1008.7
20260505033505 66 179 0.9 4.3 0.00 0.00 0.00 70 1008.8
20260505033005 66 178 1.7 4.3 0.00 0.00 0.00 69 1008.8
20260505032504 66 181 2.6 5.2 0.00 0.00 0.00 68 1008.8
20260505032005 66 173 1.7 4.3 0.00 0.00 0.00 69 1008.7
20260505031505 67 115 1.7 5.2 0.00 0.00 0.00 68 1008.7
20260505031004 67 193 1.7 6.1 0.00 0.00 0.00 68 1008.6
20260505030505 67 132 1.7 6.1 0.00 0.00 0.00 68 1008.6
20260505025506 67 196 2.6 7.8 0.00 0.00 0.00 66 1008.4
20260505025005 68 199 2.6 7.0 0.00 0.00 0.00 66 1008.3
20260505024508 68 193 1.7 5.2 0.00 0.00 0.00 65 1008.3
20260505024004 68 176 2.6 6.1 0.00 0.00 0.00 65 1008.2
20260505023504 68 180 2.6 7.0 0.00 0.00 0.00 64 1008.1
20260505023004 68 156 1.7 6.1 0.00 0.00 0.00 65 1007.9
20260505022505 68 214 2.6 11.3 0.00 0.00 0.00 65 1007.9
20260505022004 68 192 2.6 7.8 0.00 0.00 0.00 64 1007.9
20260505021506 68 198 1.7 7.8 0.00 0.00 0.00 64 1007.8
20260505021004 68 183 2.6 6.1 0.00 0.00 0.00 64 1007.7
20260505020504 68 147 1.7 4.3 0.00 0.00 0.00 65 1007.6
20260505020005 68 185 1.7 5.2 0.00 0.00 0.00 64 1007.6
20260505015504 69 192 0.9 2.6 0.00 0.00 0.00 64 1007.6
20260505015004 69 197 0.9 7.0 0.00 0.00 0.00 63 1007.5
20260505014504 69 165 1.7 7.0 0.00 0.00 0.00 62 1007.4
20260505014004 69 165 1.7 5.2 0.00 0.00 0.00 62 1007.3
20260505013504 70 197 2.6 7.0 0.00 0.00 0.00 62 1007.3
20260505013005 70 207 1.7 7.0 0.00 0.00 0.00 62 1007.3
20260505012504 70 190 1.7 6.1 0.00 0.00 0.00 62 1007.2
20260505012005 70 189 1.7 7.8 0.00 0.00 0.00 61 1007.0
20260505011504 71 184 1.7 5.2 0.00 0.00 0.00 60 1007.0
20260505011007 71 170 1.7 6.1 0.00 0.00 0.00 60 1006.8
20260505010504 71 156 2.6 6.1 0.00 0.00 0.00 58 1006.7
20260505010008 72 158 0.9 7.8 0.00 0.00 0.00 58 1006.7
20260505005004 73 183 2.6 6.1 0.00 0.00 0.00 57 1006.7
20260505004504 73 184 2.6 7.8 0.00 0.00 0.00 56 1006.7
20260505004005 73 188 5.2 10.4 0.00 0.00 0.00 56 1006.6
20260505003504 73 210 3.5 7.8 0.00 0.00 0.00 56 1006.6
20260505003005 74 188 6.1 11.3 0.00 0.00 0.00 55 1006.6
20260505001504 75 213 3.5 8.7 0.00 0.00 0.00 54 1006.5
20260505000504 75 182 4.3 12.2 0.00 0.00 0.00 53 1006.5
20260505000004 76 210 5.2 11.3 0.00 0.00 0.00 53 1006.4
20260504235504 76 210 7.8 13.0 0.00 0.00 0.00 51 1006.4
20260504235004 76 190 4.3 7.8 0.00 0.00 0.00 52 1006.4
20260504234504 77 192 6.1 12.2 0.00 0.00 0.00 51 1006.3
20260504233505 77 189 2.6 7.8 0.00 0.00 0.00 52 1006.3
20260504233005 78 203 2.6 8.7 0.00 0.00 0.00 51 1006.4
20260504232504 78 195 2.6 10.4 0.00 0.00 0.00 50 1006.5
20260504232004 78 200 7.0 11.3 0.00 0.00 0.00 50 1006.5
20260504231506 78 170 2.6 8.7 0.00 0.00 0.00 50 1006.5
20260504231004 78 194 6.1 13.0 0.00 0.00 0.00 49 1006.7
20260504230504 78 207 4.3 13.0 0.00 0.00 0.00 48 1006.8
20260504230005 78 213 6.1 11.3 0.00 0.00 0.00 48 1006.9
20260504225004 79 215 6.1 10.4 0.00 0.00 0.00 47 1006.8
20260504224504 79 219 6.1 10.4 0.00 0.00 0.00 47 1006.8
20260504223505 79 212 5.2 11.3 0.00 0.00 0.00 47 1006.9
20260504223004 79 215 7.0 13.9 0.00 0.00 0.00 46 1007.0
20260504222004 79 217 6.1 12.2 0.00 0.00 0.00 47 1007.0
20260504221504 79 233 5.2 10.4 0.00 0.00 0.00 47 1007.1
20260504221004 79 236 7.0 13.0 0.00 0.00 0.00 45 1007.0
20260504220505 79 232 6.1 11.3 0.00 0.00 0.00 45 1007.1
20260504220004 79 218 4.3 11.3 0.00 0.00 0.00 48 1007.0
20260504215504 79 219 6.1 11.3 0.00 0.00 0.00 48 1007.1
20260504214504 79 210 5.2 11.3 0.00 0.00 0.00 48 1007.1
20260504214005 79 217 7.0 11.3 0.00 0.00 0.00 47 1007.3
20260504213504 79 223 6.1 13.9 0.00 0.00 0.00 46 1007.4
20260504213006 79 209 6.1 12.2 0.00 0.00 0.00 46 1007.4
20260504212504 79 209 5.2 14.8 0.00 0.00 0.00 48 1007.3
20260504212006 79 205 6.1 14.8 0.00 0.00 0.00 48 1007.3
20260504211004 79 221 7.8 15.6 0.00 0.00 0.00 47 1007.4
20260504210506 79 203 6.1 14.8 0.00 0.00 0.00 50 1007.4
20260504210004 79 221 5.2 13.0 0.00 0.00 0.00 48 1007.5
20260504205504 79 212 5.2 13.0 0.00 0.00 0.00 48 1007.5
20260504205005 79 197 7.8 14.8 0.00 0.00 0.00 48 1007.6
20260504204506 79 205 5.2 11.3 0.00 0.00 0.00 49 1007.6
20260504204006 79 217 4.3 13.0 0.00 0.00 0.00 49 1007.6
20260504203504 78 194 6.1 13.9 0.00 0.00 0.00 48 1007.8
20260504202504 78 229 7.0 13.0 0.00 0.00 0.00 49 1007.8
20260504201504 79 205 6.1 15.6 0.00 0.00 0.00 48 1008.1
20260504200504 78 238 6.1 15.6 0.00 0.00 0.00 47 1008.2
20260504200004 79 210 8.7 15.6 0.00 0.00 0.00 48 1008.2
20260504195505 79 214 6.1 14.8 0.00 0.00 0.00 49 1008.1
20260504195004 79 213 7.0 14.8 0.00 0.00 0.00 48 1008.3
20260504194505 79 192 4.3 10.4 0.00 0.00 0.00 49 1008.2
20260504193506 78 212 10.4 15.6 0.00 0.00 0.00 48 1008.3
20260504193004 79 216 8.7 17.4 0.00 0.00 0.00 48 1008.4
20260504192504 79 210 7.0 18.2 0.00 0.00 0.00 47 1008.4
20260504192004 79 203 4.3 13.9 0.00 0.00 0.00 48 1008.4
20260504191504 79 190 6.1 12.2 0.00 0.00 0.00 47 1008.5
20260504191004 79 195 7.8 14.8 0.00 0.00 0.00 48 1008.4
20260504185504 78 205 7.0 12.2 0.00 0.00 0.00 47 1008.7
20260504185004 78 211 8.7 7.8 0.00 0.00 0.00 49 1008.7
20260504183504 78 211 8.7 13.0 0.00 0.00 0.00 49 1008.7
20260504183004 78 194 5.2 13.9 0.00 0.00 0.00 48 1008.8
20260504182004 78 206 6.1 13.9 0.00 0.00 0.00 48 1008.8
20260504181504 78 211 5.2 13.0 0.00 0.00 0.00 48 1008.9
20260504181004 77 216 4.3 12.2 0.00 0.00 0.00 49 1008.9
20260504180504 77 197 8.7 17.4 0.00 0.00 0.00 49 1008.9
20260504180005 77 188 6.1 13.9 0.00 0.00 0.00 48 1008.9
20260504175005 76 208 4.3 11.3 0.00 0.00 0.00 52 1008.9
20260504174504 76 216 8.7 15.6 0.00 0.00 0.00 50 1009.0
20260504174004 76 232 6.1 13.9 0.00 0.00 0.00 50 1009.0
20260504173505 76 213 7.0 13.9 0.00 0.00 0.00 50 1009.2
20260504173005 76 201 8.7 17.4 0.00 0.00 0.00 51 1009.2
20260504172505 76 205 9.6 15.6 0.00 0.00 0.00 50 1009.3
20260504172005 76 224 5.2 13.9 0.00 0.00 0.00 50 1009.4
20260504171504 76 166 5.2 13.0 0.00 0.00 0.00 52 1009.2
20260504151004 70 217 5.2 13.9 0.00 0.00 0.00 55 1010.5
20260504141006 65 211 4.3 8.7 0.00 0.00 0.00 67 1011.2
20260504140505 64 207 4.3 12.2 0.00 0.00 0.00 69 1011.3
20260504130504 60 190 2.6 7.8 0.00 0.00 0.00 75 1011.4
20260504110504 56 179 0.9 1.7 0.00 0.00 0.00 81 1011.0
20260504100504 57 183 1.7 2.6 0.00 0.00 0.00 80 1011.1
20260504082005 57 159 1.7 1.7 0.00 0.00 0.00 80 1011.4
20260504081504 57 151 0.9 1.7 0.00 0.00 0.00 80 1011.4
20260504081004 57 152 1.7 2.6 0.00 0.00 0.00 80 1011.4
20260504080504 57 154 0.9 2.6 0.00 0.00 0.00 79 1011.5